STARLINK-35778

Last updated on Fri Dec 19 2025 00:02:09 GMT+0000 (Coordinated Universal Time)

1 66973U 25288Q 25352.58336806 -.01379344 00000+0 -61170-2 0 9991 2 66973 43.0012 131.3579 0001474 273.2222 317.1841 15.86242128 2778
UTC large
Height (km)
Speed (km/s)
/
Latitude / Longitude
Inclination (degrees)
Orbital Period (minutes)
Azimuth
Elevation
Range (km)
Doppler Factor

Next 0 passes for location: London (51.5072 / 0.1276)

Sorry there are no passes over London.